Location: Bidwell Hollow
(37.7387°N, 90.1707°W)
Time: 00:07:21
(UTC+00:00)

Transit 2A Rocket - All Passes

Search period start: 12 May 2026 00:00
Search period end: 22 May 2026 00:00
Orbit: 587 x 895 km, 66.7° (Epoch: 11 May)

Date Brightness Start Highest point End Pass type
(mag) Time Alt. Az. Time Alt. Az. Time Alt. Az.
12 May - 01:26:32 10° SSW 01:32:22 88° ESE 01:37:47 10° NNE visible
12 May - 03:12:11 10° W 03:15:19 15° NW 03:18:22 10° NNW visible
12 May - 10:11:54 10° NNW 10:16:07 38° NE 10:20:08 10° SE visible
12 May - 11:55:07 10° WNW 11:58:02 18° WSW 12:00:54 10° SSW daylight
13 May - 00:41:08 10° S 00:46:42 48° ESE 00:51:55 10° NE daylight
13 May - 02:24:36 10° WSW 02:29:14 25° NW 02:33:38 10° N visible
13 May - 09:26:46 10° N 09:30:09 20° NE 09:33:22 10° E visible
13 May - 11:08:30 10° NW 11:12:36 37° WSW 11:16:32 10° S daylight
13 May - 23:56:26 10° SSE 00:01:08 26° ESE 00:05:36 10° NE daylight
14 May - 01:37:50 10° SW 01:43:18 43° WNW 01:48:24 10° NNE visible
14 May - 08:42:38 10° NNE 08:43:59 11° NE 08:45:19 10° ENE visible
14 May - 10:22:31 10° NNW 10:27:01 83° WSW 10:31:16 10° SSE visible
14 May - 23:13:00 10° SE 23:15:41 13° ESE 23:18:18 10° ENE daylight
15 May - 00:51:42 10° SSW 00:57:30 79° WNW 01:02:53 10° NNE daylight
15 May - 02:38:10 10° WNW 02:40:35 13° NW 02:42:57 10° NNW visible
15 May - 09:36:55 10° NNW 09:41:15 46° ENE 09:45:23 10° SE visible
15 May - 11:20:45 10° WNW 11:23:03 14° WSW 11:25:18 10° SW daylight
16 May - 00:06:09 10° S 00:11:49 57° ESE 00:17:06 10° NE daylight
16 May - 01:50:11 10° W 01:54:27 22° NW 01:58:30 10° N visible
16 May - 08:51:41 10° N 08:55:20 24° NE 08:58:50 10° ESE visible
16 May - 10:33:47 10° NW 10:37:37 30° WSW 10:41:21 10° S daylight
16 May - 23:21:14 10° S 23:26:13 31° ESE 23:30:56 10° NE daylight
17 May - 01:03:14 10° WSW 01:08:29 37° NW 01:13:23 10° NNE daylight
17 May - 08:07:06 10° NNE 08:09:13 13° NE 08:11:18 10° ENE visible
17 May - 09:47:40 10° NNW 09:52:05 67° WSW 09:56:18 10° SSE visible
17 May - 22:37:19 10° SE 22:40:44 16° ESE 22:44:02 10° ENE daylight
18 May - 00:16:56 10° SW 00:22:39 66° WNW 00:27:57 10° NNE daylight
18 May - 02:04:32 10° WNW 02:05:52 11° NW 02:07:11 10° NNW visible
18 May - 09:01:58 10° NNW 09:06:22 56° ENE 09:10:34 10° SE visible
18 May - 10:46:47 10° W 10:48:02 11° WSW 10:49:16 10° WSW daylight
18 May - 23:31:12 10° SSW 23:36:55 68° ESE 23:42:15 10° NNE daylight
19 May - 01:15:51 10° W 01:19:41 19° NW 01:23:20 10° N daylight
19 May - 08:16:38 10° N 08:20:30 28° NE 08:24:13 10° ESE visible
19 May - 09:59:06 10° NW 10:02:39 24° WSW 10:06:05 10° SSW visible
19 May - 22:46:06 10° S 22:51:18 36° ESE 22:56:12 10° NE daylight
20 May - 00:28:40 10° WSW 00:33:40 31° NW 00:38:21 10° N daylight
20 May - 07:31:47 10° N 07:34:27 15° NE 07:37:02 10° E visible
20 May - 09:12:50 10° NW 09:17:08 53° WSW 09:21:16 10° S visible
20 May - 22:01:48 10° SSE 22:05:46 19° ESE 22:09:34 10° ENE daylight
20 May - 23:42:12 10° SW 23:47:48 56° WNW 23:53:00 10° NNE daylight
21 May - 08:27:03 10° NNW 08:31:28 70° ENE 08:35:42 10° SE visible
21 May - 22:56:18 10° SSW 23:02:02 81° ESE 23:07:22 10° NNE daylight
